When you browse on this site, cookies collect data to enhance your experience and personalize the content and advertising you see.
Visit our Privacy Policy to learn more. By continuing to use the site, you agree to this use of cookies and data.
  • In Romania
  • List of Countries
  • For 7 days
  • Water Temperature
  • Weather Map
  • Weather Widgets
  • user-avatar
    Login

    Hourly Weather Pomorie

    Today, 23 January, Thursday

    Time Temperature Precipitation Wind Pressure Humidity
    00:00 +1°C° 0 mm 4 mps 765 mmHg 54%
    01:00 +1°C° 0 mm 4 mps 765 mmHg 51%
    02:00 +2°C° 0 mm 5 mps 765 mmHg 48%
    03:00 +1°C° 0 mm 5 mps 766 mmHg 52%
    04:00 +1°C° 0 mm 6 mps 766 mmHg 57%
    05:00 -1°C° 0 mm 6 mps 767 mmHg 61%
    06:00 -1°C° 0 mm 6 mps 768 mmHg 62%
    07:00 -1°C° 0 mm 6 mps 769 mmHg 64%
    08:00 -1°C° 0 mm 6 mps 770 mmHg 65%
    09:00 0°C° 0 mm 7 mps 771 mmHg 59%
    10:00 +2°C° 0 mm 7 mps 771 mmHg 53%
    11:00 +2°C° 0 mm 8 mps 772 mmHg 46%
    12:00 +4°C° 0 mm 7 mps 772 mmHg 44%
    13:00 +5°C° 0 mm 6 mps 772 mmHg 42%
    14:00 +5°C° 0 mm 6 mps 772 mmHg 41%
    15:00 +5°C° 0 mm 5 mps 772 mmHg 46%
    16:00 +5°C° 0 mm 5 mps 772 mmHg 51%
    17:00 +3°C° 0 mm 5 mps 773 mmHg 56%
    18:00 +2°C° 0 mm 5 mps 773 mmHg 59%
    19:00 +1°C° 0 mm 5 mps 773 mmHg 63%
    20:00 +1°C° 0 mm 5 mps 774 mmHg 66%
    21:00 0°C° 0 mm 4 mps 774 mmHg 67%
    22:00 0°C° 0 mm 4 mps 774 mmHg 68%
    23:00 +1°C° 0 mm 3 mps 775 mmHg 69%

    Tomorrow, 24 January, Friday

    Time Temperature Precipitation Wind Pressure Humidity
    00:00 0°C° 0 mm 3 mps 775 mmHg 70%
    01:00 +1°C° 0 mm 2 mps 775 mmHg 70%
    02:00 +1°C° 0 mm 2 mps 775 mmHg 71%
    03:00 +1°C° 0 mm 2 mps 775 mmHg 72%
    04:00 -1°C° 0 mm 2 mps 774 mmHg 73%
    05:00 -1°C° 0 mm 2 mps 774 mmHg 73%
    06:00 -1°C° 0 mm 2 mps 774 mmHg 72%
    07:00 -1°C° 0 mm 2 mps 775 mmHg 71%
    08:00 -1°C° 0 mm 2 mps 775 mmHg 69%
    09:00 +2°C° 0 mm 2 mps 775 mmHg 61%
    10:00 +3°C° 0 mm 3 mps 774 mmHg 52%
    11:00 +5°C° 0 mm 3 mps 774 mmHg 44%
    12:00 +6°C° 0 mm 4 mps 774 mmHg 42%
    13:00 +6°C° 0 mm 4 mps 773 mmHg 41%
    14:00 +7°C° 0 mm 5 mps 773 mmHg 39%
    15:00 +6°C° 0 mm 5 mps 772 mmHg 43%
    16:00 +5°C° 0 mm 4 mps 772 mmHg 48%
    17:00 +4°C° 0 mm 4 mps 772 mmHg 53%
    18:00 +3°C° 0 mm 4 mps 772 mmHg 56%
    19:00 +3°C° 0 mm 4 mps 772 mmHg 58%
    20:00 +1°C° 0 mm 4 mps 772 mmHg 61%
    21:00 +1°C° 0 mm 4 mps 771 mmHg 66%
    22:00 0°C° 0 mm 4 mps 771 mmHg 70%
    23:00 +1°C° 0 mm 3 mps 770 mmHg 75%

    Day after tomorrow, 25 January, Saturday

    Time Temperature Precipitation Wind Pressure Humidity
    00:00 +1°C° 0 mm 3 mps 770 mmHg 78%
    01:00 0°C° 0 mm 3 mps 770 mmHg 81%
    02:00 0°C° 0 mm 3 mps 769 mmHg 84%
    03:00 -1°C° 0 mm 4 mps 769 mmHg 86%
    04:00 -1°C° 0 mm 4 mps 768 mmHg 87%
    05:00 -1°C° 0 mm 4 mps 768 mmHg 88%
    06:00 -1°C° 0 mm 4 mps 768 mmHg 88%
    07:00 -1°C° 0 mm 4 mps 768 mmHg 87%
    08:00 -1°C° 0 mm 4 mps 768 mmHg 86%
    09:00 +1°C° 0 mm 4 mps 768 mmHg 76%
    10:00 +4°C° 0 mm 4 mps 768 mmHg 66%
    11:00 +6°C° 0 mm 5 mps 768 mmHg 56%
    12:00 +8°C° 0 mm 4 mps 767 mmHg 53%
    13:00 +10°C° 0 mm 4 mps 767 mmHg 50%
    14:00 +11°C° 0 mm 4 mps 766 mmHg 47%
    15:00 +10°C° 0 mm 4 mps 766 mmHg 52%
    16:00 +9°C° 0 mm 3 mps 766 mmHg 57%
    17:00 +8°C° 0 mm 3 mps 766 mmHg 62%
    18:00 +7°C° 0 mm 3 mps 766 mmHg 64%
    19:00 +5°C° 0 mm 3 mps 767 mmHg 66%
    20:00 +4°C° 0 mm 3 mps 767 mmHg 69%
    21:00 +4°C° 0 mm 3 mps 767 mmHg 68%
    22:00 +4°C° 0 mm 3 mps 767 mmHg 68%
    23:00 +5°C° 0 mm 2 mps 767 mmHg 68%

    26 January, Sunday

    Time Temperature Precipitation Wind Pressure Humidity
    00:00 +4°C° 0 mm 3 mps 767 mmHg 68%
    01:00 +4°C° 0 mm 3 mps 767 mmHg 68%
    02:00 +4°C° 0 mm 3 mps 767 mmHg 67%
    03:00 +3°C° 0 mm 3 mps 767 mmHg 68%
    04:00 +3°C° 0 mm 3 mps 767 mmHg 70%
    05:00 +3°C° 0 mm 3 mps 767 mmHg 71%
    06:00 +3°C° 0 mm 3 mps 767 mmHg 71%
    07:00 +3°C° 0 mm 3 mps 768 mmHg 71%
    08:00 +3°C° 0 mm 3 mps 768 mmHg 71%
    09:00 +5°C° 0 mm 3 mps 768 mmHg 64%
    10:00 +8°C° 0 mm 2 mps 768 mmHg 57%
    11:00 +10°C° 0 mm 2 mps 769 mmHg 50%
    12:00 +12°C° 0 mm 2 mps 768 mmHg 48%
    13:00 +12°C° 0 mm 1 mps 768 mmHg 46%
    14:00 +13°C° 0 mm 1 mps 768 mmHg 44%
    15:00 +12°C° 0 mm 1 mps 768 mmHg 50%
    16:00 +10°C° 0 mm 2 mps 768 mmHg 55%
    17:00 +9°C° 0 mm 2 mps 768 mmHg 61%
    18:00 +8°C° 0 mm 2 mps 768 mmHg 65%
    19:00 +7°C° 0 mm 2 mps 768 mmHg 68%
    20:00 +7°C° 0 mm 2 mps 768 mmHg 72%
    21:00 +6°C° 0 mm 2 mps 768 mmHg 74%
    22:00 +6°C° 0 mm 2 mps 768 mmHg 75%
    23:00 +6°C° 0 mm 2 mps 768 mmHg 77%

    27 January, Monday

    Time Temperature Precipitation Wind Pressure Humidity
    00:00 +7°C° 0 mm 1 mps 768 mmHg 78%
    01:00 +7°C° 0 mm 1 mps 768 mmHg 79%
    02:00 +7°C° 0 mm 1 mps 767 mmHg 80%
    03:00 +7°C° 0 mm 1 mps 767 mmHg 81%
    04:00 +7°C° 0 mm 1 mps 767 mmHg 82%
    05:00 +7°C° 0 mm 1 mps 767 mmHg 82%
    06:00 +7°C° 0.2 mm 1 mps 767 mmHg 83%
    07:00 +7°C° 0.2 mm 1 mps 767 mmHg 84%
    08:00 +8°C° 0.2 mm 1 mps 767 mmHg 85%
    09:00 +8°C° 0.1 mm 1 mps 767 mmHg 86%
    10:00 +8°C° 0.1 mm 1 mps 767 mmHg 87%
    11:00 +9°C° 0.1 mm 1 mps 767 mmHg 89%
    12:00 +9°C° 0.1 mm 1 mps 767 mmHg 89%
    13:00 +10°C° 0.1 mm 1 mps 766 mmHg 89%
    14:00 +10°C° 0.1 mm 1 mps 766 mmHg 90%
    15:00 +10°C° 0 mm 1 mps 766 mmHg 91%
    16:00 +10°C° 0 mm 1 mps 766 mmHg 92%
    17:00 +10°C° 0 mm 1 mps 766 mmHg 94%
    18:00 +9°C° 0.1 mm 1 mps 766 mmHg 94%
    19:00 +9°C° 0.1 mm 1 mps 766 mmHg 95%
    20:00 +9°C° 0.1 mm 1 mps 766 mmHg 96%
    21:00 +8°C° 0.2 mm 0 mps 766 mmHg 95%
    22:00 +8°C° 0.2 mm 0 mps 766 mmHg 95%
    23:00 +8°C° 0.2 mm 0 mps 766 mmHg 95%

    28 January, Tuesday

    Time Temperature Precipitation Wind Pressure Humidity
    00:00 +9°C° 0 mm 1 mps 766 mmHg 95%
    01:00 +9°C° 0 mm 1 mps 765 mmHg 95%
    02:00 +9°C° 0 mm 1 mps 765 mmHg 95%
    03:00 +9°C° 0.3 mm 1 mps 765 mmHg 95%
    04:00 +8°C° 0.3 mm 2 mps 765 mmHg 96%
    05:00 +8°C° 0.3 mm 2 mps 765 mmHg 96%
    06:00 +8°C° 0.1 mm 2 mps 765 mmHg 94%
    07:00 +8°C° 0.1 mm 2 mps 766 mmHg 93%
    08:00 +8°C° 0.1 mm 2 mps 766 mmHg 92%
    09:00 +8°C° 0.1 mm 2 mps 766 mmHg 89%
    10:00 +9°C° 0.1 mm 1 mps 766 mmHg 87%
    11:00 +9°C° 0.1 mm 1 mps 766 mmHg 84%
    12:00 +10°C° 0 mm 1 mps 766 mmHg 82%
    13:00 +10°C° 0 mm 1 mps 766 mmHg 80%
    14:00 +10°C° 0 mm 1 mps 765 mmHg 79%
    15:00 +10°C° 0 mm 1 mps 766 mmHg 80%
    16:00 +9°C° 0 mm 0 mps 766 mmHg 82%
    17:00 +9°C° 0 mm 0 mps 766 mmHg 83%
    18:00 +8°C° 0 mm 0 mps 766 mmHg 85%
    19:00 +9°C° 0 mm 1 mps 766 mmHg 86%
    20:00 +8°C° 0 mm 1 mps 766 mmHg 88%
    21:00 +7°C° 0 mm 0 mps 766 mmHg 89%
    22:00 +7°C° 0 mm 0 mps 766 mmHg 90%
    23:00 +6°C° 0 mm 0 mps 766 mmHg 90%
    Show more